When you browse on this site, cookies collect data to enhance your experience and personalize the content and advertising you see.
Visit our Privacy Policy to learn more. By continuing to use the site, you agree to this use of cookies and data.
  • In Hungary
  • List of Countries
  • For 7 days
  • Water Temperature
  • Satellite Maps
  • Weather Map
  • News
  • Weather Widgets
  • user-avatar
    Login

    Hourly Weather Trzebiszewo

    Today, 22 May, Wednesday

    Time Temperature Precipitation Wind Pressure Humidity
    00:00 +16°C° 0.1 mm 3 mps 751 mmHg 92%
    01:00 +15°C° 0 mm 4 mps 751 mmHg 95%
    02:00 +14°C° 0.1 mm 4 mps 751 mmHg 94%
    03:00 +14°C° 0.1 mm 4 mps 751 mmHg 94%
    04:00 +13°C° 0.1 mm 5 mps 752 mmHg 94%
    05:00 +14°C° 0.1 mm 5 mps 752 mmHg 92%
    06:00 +15°C° 0.1 mm 5 mps 752 mmHg 91%
    07:00 +15°C° 0.1 mm 5 mps 752 mmHg 90%
    08:00 +15°C° 0.2 mm 5 mps 752 mmHg 90%
    09:00 +15°C° 0.2 mm 5 mps 752 mmHg 90%
    10:00 +15°C° 0.2 mm 5 mps 753 mmHg 90%
    11:00 +15°C° 0.1 mm 5 mps 753 mmHg 89%
    12:00 +15°C° 0.1 mm 5 mps 753 mmHg 88%
    13:00 +15°C° 0.1 mm 5 mps 753 mmHg 87%
    14:00 +15°C° 0 mm 5 mps 754 mmHg 86%
    15:00 +16°C° 0 mm 6 mps 754 mmHg 85%
    16:00 +16°C° 0 mm 6 mps 754 mmHg 84%
    17:00 +15°C° 0.1 mm 6 mps 754 mmHg 85%
    18:00 +14°C° 0.1 mm 6 mps 755 mmHg 86%
    19:00 +14°C° 0.1 mm 6 mps 755 mmHg 87%
    20:00 +13°C° 0 mm 6 mps 755 mmHg 87%
    21:00 +13°C° 0 mm 6 mps 756 mmHg 87%
    22:00 +13°C° 0 mm 6 mps 756 mmHg 86%
    23:00 +11°C° 0 mm 6 mps 756 mmHg 86%

    Tomorrow, 23 May, Thursday

    Time Temperature Precipitation Wind Pressure Humidity
    00:00 +11°C° 0 mm 6 mps 757 mmHg 85%
    01:00 +11°C° 0 mm 6 mps 757 mmHg 84%
    02:00 +11°C° 0 mm 6 mps 757 mmHg 83%
    03:00 +10°C° 0 mm 6 mps 758 mmHg 81%
    04:00 +10°C° 0 mm 5 mps 758 mmHg 80%
    05:00 +10°C° 0 mm 5 mps 758 mmHg 76%
    06:00 +10°C° 0 mm 5 mps 758 mmHg 72%
    07:00 +10°C° 0 mm 5 mps 759 mmHg 69%
    08:00 +13°C° 0 mm 5 mps 759 mmHg 64%
    09:00 +14°C° 0 mm 5 mps 759 mmHg 59%
    10:00 +15°C° 0 mm 5 mps 759 mmHg 54%
    11:00 +16°C° 0 mm 5 mps 759 mmHg 50%
    12:00 +19°C° 0 mm 5 mps 759 mmHg 46%
    13:00 +20°C° 0 mm 5 mps 759 mmHg 42%
    14:00 +20°C° 0 mm 5 mps 759 mmHg 42%
    15:00 +20°C° 0 mm 5 mps 759 mmHg 43%
    16:00 +20°C° 0 mm 5 mps 759 mmHg 43%
    17:00 +18°C° 0 mm 4 mps 759 mmHg 49%
    18:00 +17°C° 0 mm 3 mps 759 mmHg 55%
    19:00 +16°C° 0 mm 2 mps 759 mmHg 62%
    20:00 +14°C° 0 mm 2 mps 759 mmHg 67%
    21:00 +13°C° 0 mm 1 mps 759 mmHg 72%
    22:00 +11°C° 0 mm 1 mps 759 mmHg 77%
    23:00 +11°C° 0 mm 1 mps 759 mmHg 77%

    Day after tomorrow, 24 May, Friday

    Time Temperature Precipitation Wind Pressure Humidity
    00:00 +11°C° 0 mm 1 mps 759 mmHg 76%
    01:00 +11°C° 0 mm 1 mps 759 mmHg 76%
    02:00 +11°C° 0 mm 1 mps 759 mmHg 77%
    03:00 +11°C° 0 mm 1 mps 759 mmHg 78%
    04:00 +10°C° 0 mm 2 mps 759 mmHg 79%
    05:00 +12°C° 0 mm 2 mps 759 mmHg 74%
    06:00 +14°C° 0 mm 2 mps 758 mmHg 70%
    07:00 +16°C° 0 mm 2 mps 758 mmHg 65%
    08:00 +17°C° 0 mm 2 mps 758 mmHg 60%
    09:00 +19°C° 0 mm 2 mps 758 mmHg 54%
    10:00 +21°C° 0 mm 3 mps 758 mmHg 48%
    11:00 +21°C° 0 mm 3 mps 758 mmHg 47%
    12:00 +21°C° 0 mm 3 mps 757 mmHg 46%
    13:00 +22°C° 0 mm 3 mps 757 mmHg 46%
    14:00 +22°C° 0 mm 3 mps 756 mmHg 46%
    15:00 +22°C° 0 mm 3 mps 756 mmHg 47%
    16:00 +22°C° 0 mm 3 mps 756 mmHg 48%
    17:00 +21°C° 0 mm 3 mps 755 mmHg 53%
    18:00 +20°C° 0 mm 2 mps 755 mmHg 58%
    19:00 +19°C° 0 mm 2 mps 755 mmHg 63%
    20:00 +19°C° 0 mm 1 mps 755 mmHg 68%
    21:00 +16°C° 0 mm 1 mps 755 mmHg 74%
    22:00 +15°C° 0 mm 1 mps 755 mmHg 80%
    23:00 +14°C° 0 mm 1 mps 755 mmHg 82%

    25 May, Saturday

    Time Temperature Precipitation Wind Pressure Humidity
    00:00 +14°C° 0 mm 2 mps 755 mmHg 85%
    01:00 +13°C° 0 mm 2 mps 755 mmHg 87%
    02:00 +13°C° 0 mm 2 mps 755 mmHg 88%
    03:00 +12°C° 0 mm 3 mps 756 mmHg 89%
    04:00 +12°C° 0 mm 3 mps 756 mmHg 90%
    05:00 +12°C° 0 mm 3 mps 756 mmHg 84%
    06:00 +12°C° 0 mm 4 mps 756 mmHg 77%
    07:00 +13°C° 0 mm 4 mps 756 mmHg 71%
    08:00 +14°C° 0 mm 4 mps 756 mmHg 66%
    09:00 +15°C° 0 mm 4 mps 757 mmHg 62%
    10:00 +16°C° 0 mm 5 mps 757 mmHg 58%
    11:00 +16°C° 0 mm 5 mps 757 mmHg 58%
    12:00 +16°C° 0 mm 5 mps 757 mmHg 59%
    13:00 +16°C° 0 mm 5 mps 757 mmHg 60%
    14:00 +15°C° 0 mm 5 mps 757 mmHg 60%
    15:00 +15°C° 0 mm 5 mps 757 mmHg 61%
    16:00 +15°C° 0 mm 5 mps 756 mmHg 62%
    17:00 +14°C° 0 mm 4 mps 756 mmHg 65%
    18:00 +13°C° 0 mm 4 mps 756 mmHg 69%
    19:00 +13°C° 0 mm 4 mps 756 mmHg 72%
    20:00 +13°C° 0 mm 4 mps 756 mmHg 73%
    21:00 +12°C° 0 mm 4 mps 756 mmHg 74%
    22:00 +12°C° 0 mm 4 mps 756 mmHg 75%
    23:00 +12°C° 0 mm 4 mps 756 mmHg 75%

    26 May, Sunday

    Time Temperature Precipitation Wind Pressure Humidity
    00:00 +11°C° 0 mm 4 mps 756 mmHg 76%
    01:00 +10°C° 0 mm 5 mps 756 mmHg 76%
    02:00 +10°C° 0 mm 5 mps 756 mmHg 78%
    03:00 +9°C° 0 mm 5 mps 755 mmHg 81%
    04:00 +9°C° 0 mm 5 mps 755 mmHg 84%
    05:00 +9°C° 0 mm 5 mps 755 mmHg 80%
    06:00 +10°C° 0 mm 5 mps 755 mmHg 75%
    07:00 +10°C° 0 mm 6 mps 755 mmHg 71%
    08:00 +11°C° 0 mm 6 mps 755 mmHg 69%
    09:00 +11°C° 0 mm 6 mps 755 mmHg 67%
    10:00 +13°C° 0 mm 6 mps 755 mmHg 65%
    11:00 +14°C° 0 mm 6 mps 755 mmHg 61%
    12:00 +14°C° 0 mm 6 mps 755 mmHg 57%
    13:00 +15°C° 0 mm 6 mps 754 mmHg 53%
    14:00 +15°C° 0 mm 6 mps 754 mmHg 57%
    15:00 +15°C° 0 mm 5 mps 754 mmHg 62%
    16:00 +14°C° 0 mm 5 mps 754 mmHg 67%
    17:00 +14°C° 0 mm 5 mps 754 mmHg 68%
    18:00 +14°C° 0 mm 4 mps 754 mmHg 70%
    19:00 +13°C° 0 mm 4 mps 754 mmHg 71%
    20:00 +12°C° 0 mm 4 mps 754 mmHg 78%
    21:00 +11°C° 0 mm 3 mps 754 mmHg 84%
    22:00 +10°C° 0 mm 2 mps 754 mmHg 90%
    23:00 +10°C° 0 mm 2 mps 754 mmHg 90%

    27 May, Monday

    Time Temperature Precipitation Wind Pressure Humidity
    00:00 +12°C° 0 mm 1 mps 754 mmHg 90%
    01:00 +12°C° 0 mm 1 mps 754 mmHg 90%
    02:00 +12°C° 0 mm 2 mps 753 mmHg 91%
    03:00 +13°C° 0 mm 2 mps 753 mmHg 92%
    04:00 +13°C° 0 mm 2 mps 753 mmHg 93%
    05:00 +13°C° 0 mm 3 mps 752 mmHg 88%
    06:00 +14°C° 0 mm 3 mps 752 mmHg 83%
    07:00 +17°C° 0 mm 4 mps 751 mmHg 79%
    08:00 +17°C° 0 mm 5 mps 751 mmHg 72%
    09:00 +19°C° 0 mm 6 mps 750 mmHg 66%
    10:00 +21°C° 0 mm 7 mps 750 mmHg 60%
    11:00 +20°C° 0.7 mm 7 mps 749 mmHg 66%
    12:00 +20°C° 0.7 mm 7 mps 749 mmHg 72%
    13:00 +18°C° 0.7 mm 7 mps 749 mmHg 78%
    14:00 +19°C° 0.3 mm 6 mps 749 mmHg 76%
    15:00 +17°C° 0.3 mm 6 mps 750 mmHg 74%
    16:00 +17°C° 0.3 mm 5 mps 750 mmHg 72%
    17:00 +17°C° 0.1 mm 4 mps 750 mmHg 72%
    18:00 +15°C° 0.1 mm 4 mps 751 mmHg 72%
    19:00 +16°C° 0.1 mm 3 mps 751 mmHg 73%
    20:00 +13°C° 0 mm 3 mps 752 mmHg 76%
    21:00 +12°C° 0 mm 3 mps 752 mmHg 79%
    22:00 +11°C° 0 mm 3 mps 753 mmHg 82%
    23:00 +10°C° 0 mm 3 mps 753 mmHg 84%
    Show more